EWG349 EDDH-EDXW

Flight info

Callsign EWG349
Flight time 0h 25m
Altitude 19000
Route SOKWO1G/33 SOKWO T814 EXNEL DCT OLDIP DCT
Aircraft A320/M-V/N

Departure

Time 2026-04-24 19:03
Airport Hamburg Helmut Schmidt Airport (EDDH)

Arrival

Time 2026-04-24 19:29
Airport Westerland Sylt Airport (EDXW)
Time Latitude Longitude Altitude Speed Heading
2026-04-24 18:54 53.63156 10.00221 46 ft 1 kts 166°
2026-04-24 18:55 53.63148 10.00223 46 ft 0 kts 178°
2026-04-24 18:55 53.63116 10.00199 47 ft 0 kts 183°
2026-04-24 18:56 53.63115 10.00199 47 ft 0 kts 183°
2026-04-24 18:56 53.63109 10.00198 48 ft 0 kts 185°
2026-04-24 18:57 53.63108 10.00198 48 ft 1 kts 185°
2026-04-24 18:57 53.63066 10.00182 44 ft 8 kts 206°
2026-04-24 18:57 53.63031 10.00142 47 ft 0 kts 214°
2026-04-24 18:59 53.63025 10.00136 47 ft 2 kts 212°
2026-04-24 18:59 53.63000 10.00111 45 ft 12 kts 211°
2026-04-24 18:59 53.62929 10.00013 46 ft 14 kts 234°
2026-04-24 18:59 53.62896 9.99909 46 ft 0 kts 242°
2026-04-24 19:02 53.62882 9.99864 46 ft 12 kts 242°
2026-04-24 19:02 53.62883 9.99730 47 ft 13 kts 321°
2026-04-24 19:02 53.62895 9.99718 47 ft 0 kts 330°
2026-04-24 19:03 53.62916 9.99699 47 ft 15 kts 332°
2026-04-24 19:03 53.63257 9.99399 50 ft 91 kts 332°
2026-04-24 19:03 53.64006 9.98763 57 ft 145 kts 332°
2026-04-24 19:03 53.64943 9.98008 759 ft 144 kts 333°
2026-04-24 19:04 53.65838 9.97272 1371 ft 158 kts 330°
2026-04-24 19:04 53.66814 9.96425 1667 ft 156 kts 331°
2026-04-24 19:04 53.67931 9.95453 2213 ft 180 kts 331°
2026-04-24 19:04 53.69052 9.94661 2959 ft 194 kts 349°
2026-04-24 19:05 53.70426 9.94694 4155 ft 197 kts
2026-04-24 19:05 53.71847 9.94761 4911 ft 203 kts 356°
2026-04-24 19:05 53.73274 9.94894 6058 ft 209 kts
2026-04-24 19:05 53.74768 9.96008 6989 ft 238 kts 26°
2026-04-24 19:06 53.76151 9.97472 7718 ft 261 kts 27°
2026-04-24 19:06 53.77717 9.99175 8062 ft 270 kts 28°
2026-04-24 19:06 53.79290 10.00914 8147 ft 271 kts 28°
2026-04-24 19:06 53.80883 10.02687 8155 ft 271 kts 28°
2026-04-24 19:07 53.82457 10.04436 8163 ft 271 kts 28°
2026-04-24 19:07 53.84068 10.06208 8809 ft 284 kts 28°
2026-04-24 19:07 53.85172 10.07422 9524 ft 283 kts 27°
2026-04-24 19:07 53.87399 10.09701 10019 ft 275 kts 19°
2026-04-24 19:08 53.89201 10.10724 10125 ft 280 kts
2026-04-24 19:08 53.91239 10.11026 10144 ft 303 kts 354°
2026-04-24 19:08 53.93331 10.10458 10144 ft 306 kts 343°
2026-04-24 19:08 53.95397 10.09569 10160 ft 308 kts 343°
2026-04-24 19:09 53.97530 10.08660 11123 ft 313 kts 343°
2026-04-24 19:09 53.99653 10.07758 12301 ft 317 kts 343°
2026-04-24 19:09 54.01817 10.06843 13396 ft 324 kts 343°
2026-04-24 19:09 54.02832 10.06414 13884 ft 326 kts 343°
2026-04-24 19:10 54.05068 10.05546 14796 ft 333 kts 343°
2026-04-24 19:10 54.07372 10.04597 15724 ft 339 kts 343°
2026-04-24 19:10 54.09643 10.03366 16627 ft 343 kts 334°
2026-04-24 19:10 54.11722 10.01361 17532 ft 347 kts 323°
2026-04-24 19:11 54.13568 9.98586 18427 ft 352 kts 312°
2026-04-24 19:11 54.15213 9.95450 18907 ft 356 kts 311°
2026-04-24 19:11 54.16865 9.92298 19070 ft 357 kts 311°
2026-04-24 19:11 54.18532 9.89121 19114 ft 362 kts 311°
2026-04-24 19:12 54.20216 9.85913 19134 ft 364 kts 311°
2026-04-24 19:12 54.21904 9.82696 19134 ft 364 kts 311°
2026-04-24 19:12 54.23596 9.79474 19134 ft 364 kts 312°
2026-04-24 19:12 54.25484 9.76589 19132 ft 365 kts 322°
2026-04-24 19:13 54.26874 9.74861 19137 ft 366 kts 322°
2026-04-24 19:13 54.29628 9.71442 19139 ft 366 kts 322°
2026-04-24 19:13 54.31699 9.68863 19138 ft 366 kts 322°
2026-04-24 19:13 54.33744 9.66315 19140 ft 365 kts 322°
2026-04-24 19:14 54.35657 9.63495 19138 ft 359 kts 310°
2026-04-24 19:14 54.37089 9.60177 18544 ft 338 kts 304°
2026-04-24 19:14 54.38392 9.56831 17552 ft 329 kts 303°
2026-04-24 19:14 54.39623 9.53568 16527 ft 322 kts 303°
2026-04-24 19:15 54.40829 9.50333 15559 ft 316 kts 303°
2026-04-24 19:15 54.42009 9.47170 14625 ft 310 kts 303°
2026-04-24 19:15 54.43169 9.44080 13710 ft 305 kts 303°
2026-04-24 19:15 54.44310 9.41052 12728 ft 299 kts 304°
2026-04-24 19:16 54.46543 9.35144 10823 ft 290 kts 304°
2026-04-24 19:16 54.47635 9.32258 9903 ft 286 kts 304°
2026-04-24 19:16 54.48715 9.29396 8919 ft 281 kts 304°
2026-04-24 19:17 54.49765 9.26602 8295 ft 279 kts 304°
2026-04-24 19:17 54.50460 9.24749 8193 ft 268 kts 304°
2026-04-24 19:17 54.51771 9.21246 7864 ft 254 kts 304°
2026-04-24 19:17 54.52727 9.18696 7425 ft 253 kts 304°
2026-04-24 19:18 54.53680 9.16161 6955 ft 252 kts 304°
2026-04-24 19:18 54.54630 9.13630 6487 ft 251 kts 304°
2026-04-24 19:18 54.55572 9.11117 6205 ft 250 kts 304°
2026-04-24 19:18 54.56197 9.09445 6084 ft 251 kts 304°
2026-04-24 19:19 54.57141 9.06918 5910 ft 251 kts 304°
2026-04-24 19:19 54.58081 9.04400 5738 ft 250 kts 304°
2026-04-24 19:19 54.59324 9.01071 5499 ft 249 kts 304°
2026-04-24 19:19 54.60260 8.98567 5326 ft 248 kts 304°
2026-04-24 19:20 54.61189 8.96074 5121 ft 247 kts 304°
2026-04-24 19:20 54.61814 8.94392 4989 ft 246 kts 304°
2026-04-24 19:20 54.62735 8.91911 4796 ft 245 kts 304°
2026-04-24 19:20 54.63652 8.89435 4616 ft 244 kts 304°
2026-04-24 19:21 54.64559 8.86989 4441 ft 244 kts 304°
2026-04-24 19:21 54.65546 8.84338 4270 ft 271 kts 304°
2026-04-24 19:21 54.66597 8.81510 4081 ft 280 kts 304°
2026-04-24 19:21 54.67633 8.78716 3909 ft 281 kts 304°
2026-04-24 19:22 54.68683 8.75865 3730 ft 281 kts 304°
2026-04-24 19:22 54.69742 8.72979 3557 ft 280 kts 304°
2026-04-24 19:22 54.70787 8.70131 3384 ft 280 kts 304°
2026-04-24 19:22 54.71830 8.67293 3209 ft 279 kts 304°
2026-04-24 19:23 54.72867 8.64472 3069 ft 274 kts 304°
2026-04-24 19:23 54.73875 8.61727 3017 ft 268 kts 304°
2026-04-24 19:23 54.74843 8.59078 3022 ft 249 kts 304°
2026-04-24 19:23 54.75726 8.56654 3028 ft 227 kts 305°
2026-04-24 19:24 54.76532 8.54437 3029 ft 209 kts 305°
2026-04-24 19:24 54.77277 8.52391 3030 ft 193 kts 305°
2026-04-24 19:24 54.78011 8.50558 3001 ft 178 kts 316°
2026-04-24 19:24 54.78968 8.49288 2875 ft 168 kts 325°
2026-04-24 19:25 54.79893 8.48157 2663 ft 158 kts 325°
2026-04-24 19:25 54.80766 8.47084 2465 ft 150 kts 326°
2026-04-24 19:25 54.81532 8.46144 2276 ft 145 kts 325°
2026-04-24 19:25 54.82339 8.45150 2094 ft 140 kts 326°
2026-04-24 19:26 54.83100 8.44211 1916 ft 129 kts 326°
2026-04-24 19:26 54.83821 8.43323 1738 ft 126 kts 325°
2026-04-24 19:26 54.84526 8.42453 1552 ft 124 kts 325°
2026-04-24 19:26 54.85226 8.41589 1382 ft 123 kts 326°
2026-04-24 19:27 54.85919 8.40734 1212 ft 122 kts 326°
2026-04-24 19:27 54.86610 8.39876 1044 ft 122 kts 325°
2026-04-24 19:27 54.87297 8.39027 854 ft 117 kts 325°
2026-04-24 19:27 54.87948 8.38212 680 ft 114 kts 324°
2026-04-24 19:28 54.88587 8.37412 496 ft 113 kts 324°
2026-04-24 19:28 54.89226 8.36613 366 ft 114 kts 324°
2026-04-24 19:28 54.89872 8.35817 210 ft 113 kts 325°
2026-04-24 19:28 54.90515 8.35038 46 ft 111 kts 325°
2026-04-24 19:29 54.91334 8.34029 31 ft 26 kts 324°
2026-04-24 19:29 54.91471 8.33863 36 ft 23 kts 325°
2026-04-24 19:29 54.91598 8.33705 36 ft 22 kts 323°
2026-04-24 19:30 54.91645 8.33646 36 ft 0 kts 325°
2026-04-24 19:30 54.91651 8.33636 36 ft 3 kts 316°
2026-04-24 19:30 54.91673 8.33575 36 ft 10 kts 294°
2026-04-24 19:30 54.91705 8.33445 35 ft 13 kts 292°
2026-04-24 19:31 54.91746 8.33284 34 ft 16 kts 294°
2026-04-24 19:31 54.91730 8.33188 35 ft 7 kts 187°
2026-04-24 19:31 54.91652 8.33179 35 ft 16 kts 179°
2026-04-24 19:31 54.91535 8.33180 31 ft 18 kts 179°
2026-04-24 19:32 54.91425 8.33232 29 ft 13 kts 150°
2026-04-24 19:32 54.91353 8.33213 29 ft 11 kts 242°
2026-04-24 19:32 54.91350 8.33140 26 ft 0 kts 272°
2026-04-24 19:32 54.91350 8.33123 28 ft 1 kts 271°
2026-04-24 19:33 54.91350 8.33121 29 ft 0 kts 271°
2026-04-24 19:33 54.91351 8.33113 29 ft 0 kts 271°